Year,Month,Day,Hour,Minute,Value (Times are PST for temperature in C)
2009,05,24,00,00,8.40
2009,05,24,00,01,8.40
2009,05,24,00,02,8.30
2009,05,24,00,03,8.30
2009,05,24,00,04,8.30
2009,05,24,00,05,8.30
2009,05,24,00,06,8.30
2009,05,24,00,07,8.30
2009,05,24,00,08,8.30
2009,05,24,00,09,8.30
2009,05,24,00,10,8.30
2009,05,24,00,11,8.30
2009,05,24,00,12,8.30
2009,05,24,00,13,8.30
2009,05,24,00,14,8.30
2009,05,24,00,15,8.30
2009,05,24,00,16,8.30
2009,05,24,00,17,8.40
2009,05,24,00,18,8.40
2009,05,24,00,19,8.40
2009,05,24,00,20,8.40
2009,05,24,00,21,8.40
2009,05,24,00,22,8.40
2009,05,24,00,23,8.40
2009,05,24,00,24,8.40
2009,05,24,00,25,8.40
2009,05,24,00,26,8.30
2009,05,24,00,27,8.30
2009,05,24,00,28,8.30
2009,05,24,00,29,8.30
2009,05,24,00,30,8.30
2009,05,24,00,31,8.30
2009,05,24,00,32,8.20
2009,05,24,00,33,8.20
2009,05,24,00,34,8.20
2009,05,24,00,35,8.20
2009,05,24,00,36,8.20
2009,05,24,00,37,8.20
2009,05,24,00,38,8.10
2009,05,24,00,39,8.10
2009,05,24,00,40,8.10
2009,05,24,00,41,8.10
2009,05,24,00,42,8.00
2009,05,24,00,43,8.00
2009,05,24,00,44,8.00
2009,05,24,00,45,8.00
2009,05,24,00,46,7.90
2009,05,24,00,47,7.90
2009,05,24,00,48,7.90
2009,05,24,00,49,7.90
2009,05,24,00,50,7.90
2009,05,24,00,51,7.80
2009,05,24,00,52,7.80
2009,05,24,00,53,7.80
2009,05,24,00,54,7.80
2009,05,24,00,55,7.80
2009,05,24,00,56,7.80
2009,05,24,00,57,7.70
2009,05,24,00,58,7.70
2009,05,24,00,59,7.70
2009,05,24,01,00,7.70
2009,05,24,01,01,7.70
2009,05,24,01,02,7.70
2009,05,24,01,03,7.70
2009,05,24,01,04,7.70
2009,05,24,01,05,7.70
2009,05,24,01,06,7.70
2009,05,24,01,07,7.70
2009,05,24,01,08,7.70
2009,05,24,01,09,7.60
2009,05,24,01,10,7.60
2009,05,24,01,11,7.60
2009,05,24,01,12,7.60
2009,05,24,01,13,7.60
2009,05,24,01,14,7.60
2009,05,24,01,15,7.60
2009,05,24,01,16,7.60
2009,05,24,01,17,7.60
2009,05,24,01,18,7.60
2009,05,24,01,19,7.60
2009,05,24,01,20,7.60
2009,05,24,01,21,7.60
2009,05,24,01,22,7.60
2009,05,24,01,23,7.50
2009,05,24,01,24,7.50
2009,05,24,01,25,7.50
2009,05,24,01,26,7.50
2009,05,24,01,27,7.50
2009,05,24,01,28,7.50
2009,05,24,01,29,7.50
2009,05,24,01,30,7.40
2009,05,24,01,31,7.40
2009,05,24,01,32,7.40
2009,05,24,01,33,7.40
2009,05,24,01,34,7.40
2009,05,24,01,35,7.40
2009,05,24,01,36,7.40
2009,05,24,01,37,7.40
2009,05,24,01,38,7.40
2009,05,24,01,39,7.40
2009,05,24,01,40,7.40
2009,05,24,01,41,7.40
2009,05,24,01,42,7.40
2009,05,24,01,43,7.40
2009,05,24,01,44,7.30
2009,05,24,01,45,7.30
2009,05,24,01,46,7.30
2009,05,24,01,47,7.30
2009,05,24,01,48,7.30
2009,05,24,01,49,7.30
2009,05,24,01,50,7.30
2009,05,24,01,51,7.30
2009,05,24,01,52,7.30
2009,05,24,01,53,7.20
2009,05,24,01,54,7.20
2009,05,24,01,55,7.20
2009,05,24,01,56,7.20
2009,05,24,01,57,7.20
2009,05,24,01,58,7.20
2009,05,24,01,59,7.20
2009,05,24,02,00,7.20
2009,05,24,02,01,7.20
2009,05,24,02,02,7.20
2009,05,24,02,03,7.20
2009,05,24,02,04,7.20
2009,05,24,02,05,7.20
2009,05,24,02,06,7.20
2009,05,24,02,07,7.20
2009,05,24,02,08,7.20
2009,05,24,02,09,7.20
2009,05,24,02,10,7.20
2009,05,24,02,11,7.10
2009,05,24,02,12,7.10
2009,05,24,02,13,7.10
2009,05,24,02,14,7.10
2009,05,24,02,15,7.10
2009,05,24,02,16,7.10
2009,05,24,02,17,7.10
2009,05,24,02,18,7.10
2009,05,24,02,19,7.10
2009,05,24,02,20,7.00
2009,05,24,02,21,7.00
2009,05,24,02,22,7.00
2009,05,24,02,23,7.00
2009,05,24,02,24,7.00
2009,05,24,02,25,6.90
2009,05,24,02,26,6.90
2009,05,24,02,27,6.90
2009,05,24,02,28,6.90
2009,05,24,02,29,6.90
2009,05,24,02,30,6.90
2009,05,24,02,31,6.90
2009,05,24,02,32,6.90
2009,05,24,02,33,6.90
2009,05,24,02,34,6.90
2009,05,24,02,35,6.90
2009,05,24,02,36,6.90
2009,05,24,02,37,6.90
2009,05,24,02,38,6.80
2009,05,24,02,39,6.80
2009,05,24,02,40,6.80
2009,05,24,02,41,6.80
2009,05,24,02,42,6.80
2009,05,24,02,43,6.80
2009,05,24,02,44,6.80
2009,05,24,02,45,6.70
2009,05,24,02,46,6.70
2009,05,24,02,47,6.70
2009,05,24,02,48,6.70
2009,05,24,02,49,6.70
2009,05,24,02,50,6.70
2009,05,24,02,51,6.70
2009,05,24,02,52,6.60
2009,05,24,02,53,6.60
2009,05,24,02,54,6.60
2009,05,24,02,55,6.60
2009,05,24,02,56,6.60
2009,05,24,02,57,6.60
2009,05,24,02,58,6.60
2009,05,24,02,59,6.60
2009,05,24,03,00,6.60
2009,05,24,03,01,6.50
2009,05,24,03,02,6.50
2009,05,24,03,03,6.50
2009,05,24,03,04,6.50
2009,05,24,03,05,6.40
2009,05,24,03,06,6.40
2009,05,24,03,07,6.40
2009,05,24,03,08,6.40
2009,05,24,03,09,6.40
2009,05,24,03,10,6.40
2009,05,24,03,11,6.40
2009,05,24,03,12,6.40
2009,05,24,03,13,6.40
2009,05,24,03,14,6.40
2009,05,24,03,15,6.40
2009,05,24,03,16,6.40
2009,05,24,03,17,6.30
2009,05,24,03,18,6.30
2009,05,24,03,19,6.30
2009,05,24,03,20,6.30
2009,05,24,03,21,6.30
2009,05,24,03,22,6.30
2009,05,24,03,23,6.30
2009,05,24,03,24,6.30
2009,05,24,03,25,6.30
2009,05,24,03,26,6.30
2009,05,24,03,27,6.30
2009,05,24,03,28,6.30
2009,05,24,03,29,6.30
2009,05,24,03,30,6.30
2009,05,24,03,31,6.30
2009,05,24,03,32,6.20
2009,05,24,03,33,6.20
2009,05,24,03,34,6.20
2009,05,24,03,35,6.20
2009,05,24,03,36,6.20
2009,05,24,03,37,6.20
2009,05,24,03,38,6.20
2009,05,24,03,39,6.20
2009,05,24,03,40,6.20
2009,05,24,03,41,6.20
2009,05,24,03,42,6.20
2009,05,24,03,43,6.20
2009,05,24,03,44,6.20
2009,05,24,03,45,6.20
2009,05,24,03,46,6.10
2009,05,24,03,47,6.10
2009,05,24,03,48,6.10
2009,05,24,03,49,6.10
2009,05,24,03,50,6.10
2009,05,24,03,51,6.10
2009,05,24,03,52,6.10
2009,05,24,03,53,6.10
2009,05,24,03,54,6.10
2009,05,24,03,55,6.10
2009,05,24,03,56,6.00
2009,05,24,03,57,6.00
2009,05,24,03,58,6.00
2009,05,24,03,59,6.00
2009,05,24,04,00,6.00
2009,05,24,04,01,6.00
2009,05,24,04,02,6.00
2009,05,24,04,03,6.00
2009,05,24,04,04,6.00
2009,05,24,04,05,6.00
2009,05,24,04,06,6.00
2009,05,24,04,18,5.90
2009,05,24,04,21,5.90
2009,05,24,04,22,5.90
2009,05,24,04,23,5.90
2009,05,24,04,36,5.80
2009,05,24,04,38,5.70
2009,05,24,04,39,5.80
2009,05,24,04,40,5.70
2009,05,24,04,41,5.70
2009,05,24,04,42,5.70
2009,05,24,04,43,5.70
2009,05,24,04,44,5.70
2009,05,24,04,45,5.70
2009,05,24,04,46,5.70
2009,05,24,04,47,5.70
2009,05,24,04,48,5.70
2009,05,24,04,49,5.70
2009,05,24,04,50,5.70
2009,05,24,04,51,5.70
2009,05,24,04,52,5.70
2009,05,24,04,53,5.60
2009,05,24,04,54,5.60
2009,05,24,04,55,5.60
2009,05,24,04,56,5.60
2009,05,24,04,57,5.60
2009,05,24,04,58,5.60
2009,05,24,04,59,5.60
2009,05,24,05,00,5.60
2009,05,24,05,01,5.60
2009,05,24,05,02,5.60
2009,05,24,05,03,5.60
2009,05,24,05,04,5.60
2009,05,24,05,05,5.60
2009,05,24,05,06,5.60
2009,05,24,05,07,5.60
2009,05,24,05,08,5.50
2009,05,24,05,09,5.50
2009,05,24,05,10,5.50
2009,05,24,05,11,5.50
2009,05,24,05,12,5.50
2009,05,24,05,13,5.50
2009,05,24,05,14,5.50
2009,05,24,05,15,5.40
2009,05,24,05,16,5.40
2009,05,24,05,17,5.40
2009,05,24,05,18,5.40
2009,05,24,05,19,5.40
2009,05,24,05,20,5.40
2009,05,24,05,21,5.40
2009,05,24,05,22,5.40
2009,05,24,05,23,5.40
2009,05,24,05,24,5.40
2009,05,24,05,25,5.40
2009,05,24,05,26,5.40
2009,05,24,05,27,5.40
2009,05,24,05,28,5.40
2009,05,24,05,29,5.30
2009,05,24,05,30,5.30
2009,05,24,05,31,5.30
2009,05,24,05,32,5.30
2009,05,24,05,33,5.30
2009,05,24,05,34,5.30
2009,05,24,05,35,5.40
2009,05,24,05,36,5.40
2009,05,24,05,37,5.40
2009,05,24,05,38,5.40
2009,05,24,05,39,5.40
2009,05,24,05,40,5.40
2009,05,24,05,41,5.30
2009,05,24,05,42,5.30
2009,05,24,05,43,5.30
2009,05,24,05,44,5.30
2009,05,24,05,45,5.30
2009,05,24,05,46,5.30
2009,05,24,05,47,5.30
2009,05,24,05,48,5.30
2009,05,24,05,49,5.30
2009,05,24,05,50,5.30
2009,05,24,05,51,5.30
2009,05,24,05,52,5.40
2009,05,24,05,53,5.40
2009,05,24,05,54,5.40
2009,05,24,05,55,5.40
2009,05,24,05,56,5.40
2009,05,24,05,57,5.40
2009,05,24,05,58,5.40
2009,05,24,05,59,5.40
2009,05,24,06,00,5.40
2009,05,24,06,01,5.40
2009,05,24,06,02,5.40
2009,05,24,06,03,5.40
2009,05,24,06,04,5.40
2009,05,24,06,05,5.40
2009,05,24,06,06,5.40
2009,05,24,06,07,5.40
2009,05,24,06,08,5.40
2009,05,24,06,09,5.40
2009,05,24,06,10,5.40
2009,05,24,06,11,5.40
2009,05,24,06,12,5.40
2009,05,24,06,13,5.40
2009,05,24,06,14,5.40
2009,05,24,06,15,5.40
2009,05,24,06,16,5.40
2009,05,24,06,17,5.40
2009,05,24,06,18,5.40
2009,05,24,06,19,5.50
2009,05,24,06,20,5.50
2009,05,24,06,21,5.50
2009,05,24,06,22,5.50
2009,05,24,06,23,5.50
2009,05,24,06,24,5.60
2009,05,24,06,25,5.60
2009,05,24,06,26,5.60
2009,05,24,06,27,5.60
2009,05,24,06,28,5.60
2009,05,24,06,29,5.60
2009,05,24,06,30,5.60
2009,05,24,06,31,5.70
2009,05,24,06,32,5.70
2009,05,24,06,33,5.70
2009,05,24,06,34,5.70
2009,05,24,06,35,5.70
2009,05,24,06,36,5.70
2009,05,24,06,37,5.70
2009,05,24,06,38,5.80
2009,05,24,06,39,5.80
2009,05,24,06,40,5.80
2009,05,24,06,41,5.80
2009,05,24,06,42,5.80
2009,05,24,06,43,5.80
2009,05,24,06,44,5.90
2009,05,24,06,45,5.90
2009,05,24,06,46,5.90
2009,05,24,06,47,5.90
2009,05,24,06,48,5.90
2009,05,24,06,49,5.90
2009,05,24,06,50,6.00
2009,05,24,06,51,6.00
2009,05,24,06,52,6.00
2009,05,24,06,53,6.00
2009,05,24,06,54,6.00
2009,05,24,06,55,6.10
2009,05,24,06,56,6.10
2009,05,24,06,57,6.10
2009,05,24,06,58,6.10
2009,05,24,06,59,6.20
2009,05,24,07,00,6.20
2009,05,24,07,01,6.20
2009,05,24,07,02,6.30
2009,05,24,07,03,6.30
2009,05,24,07,04,6.30
2009,05,24,07,05,6.30
2009,05,24,07,06,6.40
2009,05,24,07,07,6.40
2009,05,24,07,08,6.50
2009,05,24,07,09,6.60
2009,05,24,07,10,6.70
2009,05,24,07,11,6.70
2009,05,24,07,12,6.80
2009,05,24,07,13,6.80
2009,05,24,07,14,6.90
2009,05,24,07,15,6.90
2009,05,24,07,16,7.00
2009,05,24,07,17,7.10
2009,05,24,07,18,7.20
2009,05,24,07,19,7.20
2009,05,24,07,20,7.30
2009,05,24,07,21,7.40
2009,05,24,07,22,7.50
2009,05,24,07,23,7.50
2009,05,24,07,24,7.60
2009,05,24,07,25,7.70
2009,05,24,07,26,7.80
2009,05,24,07,27,7.90
2009,05,24,07,28,8.10
2009,05,24,07,29,8.20
2009,05,24,07,30,8.30
2009,05,24,07,31,8.40
2009,05,24,07,32,8.50
2009,05,24,07,33,8.60
2009,05,24,07,34,8.70
2009,05,24,07,35,8.80
2009,05,24,07,36,8.90
2009,05,24,07,37,9.00
2009,05,24,07,38,9.20
2009,05,24,07,39,9.30
2009,05,24,07,40,9.40
2009,05,24,07,41,9.50
2009,05,24,07,42,9.60
2009,05,24,07,43,9.80
2009,05,24,07,44,9.90
2009,05,24,07,45,10.00
2009,05,24,07,46,10.20
2009,05,24,07,47,10.30
2009,05,24,07,48,10.50
2009,05,24,07,49,10.60
2009,05,24,07,50,10.90
2009,05,24,07,51,11.10
2009,05,24,07,52,11.30
2009,05,24,07,53,11.50
2009,05,24,07,54,11.70
2009,05,24,07,55,11.80
2009,05,24,07,56,12.00
2009,05,24,07,57,12.10
2009,05,24,07,58,12.20
2009,05,24,07,59,12.30
2009,05,24,08,00,12.40
2009,05,24,08,01,12.50
2009,05,24,08,02,12.60
2009,05,24,08,03,12.60
2009,05,24,08,04,12.70
2009,05,24,08,05,12.80
2009,05,24,08,06,12.80
2009,05,24,08,07,12.90
2009,05,24,08,08,12.90
2009,05,24,08,09,13.00
2009,05,24,08,10,13.00
2009,05,24,08,11,13.10
2009,05,24,08,12,13.20
2009,05,24,08,13,13.30
2009,05,24,08,14,13.40
2009,05,24,08,15,13.50
2009,05,24,08,16,13.60
2009,05,24,08,17,13.70
2009,05,24,08,18,13.80
2009,05,24,08,19,13.90
2009,05,24,08,20,14.00
2009,05,24,08,21,14.10
2009,05,24,08,22,14.20
2009,05,24,08,23,14.30
2009,05,24,08,24,14.40
2009,05,24,08,25,14.40
2009,05,24,08,26,14.40
2009,05,24,08,27,14.40
2009,05,24,08,28,14.40
2009,05,24,08,29,14.40
2009,05,24,08,30,14.30
2009,05,24,08,31,14.30
2009,05,24,08,32,14.30
2009,05,24,08,33,14.30
2009,05,24,08,34,14.30
2009,05,24,08,35,14.30
2009,05,24,08,36,14.40
2009,05,24,08,37,14.40
2009,05,24,08,38,14.30
2009,05,24,08,39,14.20
2009,05,24,08,40,14.30
2009,05,24,08,41,14.30
2009,05,24,08,42,14.30
2009,05,24,08,43,14.40
2009,05,24,08,44,14.40
2009,05,24,08,45,14.30
2009,05,24,08,46,14.30
2009,05,24,08,47,14.30
2009,05,24,08,48,14.30
2009,05,24,08,49,14.30
2009,05,24,08,50,14.30
2009,05,24,08,51,14.40
2009,05,24,08,52,14.40
2009,05,24,08,53,14.40
2009,05,24,08,54,14.40
2009,05,24,08,55,14.40
2009,05,24,08,56,14.40
2009,05,24,08,57,14.50
2009,05,24,08,58,14.60
2009,05,24,08,59,14.70
2009,05,24,09,00,14.70
2009,05,24,09,01,14.80
2009,05,24,09,02,14.90
2009,05,24,09,03,14.90
2009,05,24,09,04,14.80
2009,05,24,09,05,14.80
2009,05,24,09,06,14.70
2009,05,24,09,07,14.60
2009,05,24,09,08,14.60
2009,05,24,09,09,14.60
2009,05,24,09,10,14.60
2009,05,24,09,11,14.70
2009,05,24,09,12,14.80
2009,05,24,09,13,14.90
2009,05,24,09,14,14.90
2009,05,24,09,15,15.00
2009,05,24,09,16,15.00
2009,05,24,09,17,15.00
2009,05,24,09,18,15.00
2009,05,24,09,19,15.00
2009,05,24,09,20,15.00
2009,05,24,09,21,15.00
2009,05,24,09,22,15.00
2009,05,24,09,23,15.00
2009,05,24,09,24,15.00
2009,05,24,09,25,15.00
2009,05,24,09,26,15.00
2009,05,24,09,27,15.00
2009,05,24,09,28,15.00
2009,05,24,09,29,15.00
2009,05,24,09,30,15.00
2009,05,24,09,31,15.00
2009,05,24,09,32,15.10
2009,05,24,09,33,15.20
2009,05,24,09,34,15.20
2009,05,24,09,35,15.20
2009,05,24,09,36,15.20
2009,05,24,09,37,15.20
2009,05,24,09,38,15.20
2009,05,24,09,39,15.30
2009,05,24,09,40,15.30
2009,05,24,09,41,15.30
2009,05,24,09,42,15.30
2009,05,24,09,43,15.40
2009,05,24,09,44,15.40
2009,05,24,09,45,15.50
2009,05,24,09,46,15.70
2009,05,24,09,47,15.70
2009,05,24,09,48,15.80
2009,05,24,09,49,15.80
2009,05,24,09,50,15.80
2009,05,24,09,51,15.80
2009,05,24,09,52,15.90
2009,05,24,09,53,15.90
2009,05,24,09,54,15.90
2009,05,24,09,55,15.80
2009,05,24,09,56,15.70
2009,05,24,09,57,15.70
2009,05,24,09,58,15.80
2009,05,24,09,59,15.80
2009,05,24,10,00,15.80
2009,05,24,10,01,15.80
2009,05,24,10,02,15.80
2009,05,24,10,03,15.60
2009,05,24,10,04,15.50
2009,05,24,10,05,15.50
2009,05,24,10,06,15.50
2009,05,24,10,07,15.50
2009,05,24,10,08,15.50
2009,05,24,10,09,15.50
2009,05,24,10,10,15.50
2009,05,24,10,11,15.60
2009,05,24,10,12,15.60
2009,05,24,10,13,15.60
2009,05,24,10,14,15.60
2009,05,24,10,15,15.60
2009,05,24,10,16,15.70
2009,05,24,10,17,15.80
2009,05,24,10,18,15.80
2009,05,24,10,19,15.90
2009,05,24,10,20,15.90
2009,05,24,10,21,15.90
2009,05,24,10,22,16.00
2009,05,24,10,23,16.10
2009,05,24,10,24,16.20
2009,05,24,10,25,16.20
2009,05,24,10,26,16.30
2009,05,24,10,27,16.30
2009,05,24,10,28,16.30
2009,05,24,10,29,16.30
2009,05,24,10,30,16.30
2009,05,24,10,31,16.30
2009,05,24,10,32,16.20
2009,05,24,10,33,16.20
2009,05,24,10,34,16.10
2009,05,24,10,35,16.10
2009,05,24,10,36,16.10
2009,05,24,10,37,16.20
2009,05,24,10,38,16.20
2009,05,24,10,39,16.30
2009,05,24,10,40,16.40
2009,05,24,10,41,16.50
2009,05,24,10,42,16.40
2009,05,24,10,43,16.40
2009,05,24,10,44,16.50
2009,05,24,10,45,16.40
2009,05,24,10,46,16.30
2009,05,24,10,47,16.30
2009,05,24,10,48,16.30
2009,05,24,10,49,16.30
2009,05,24,10,50,16.30
2009,05,24,10,51,16.30
2009,05,24,10,52,16.20
2009,05,24,10,53,16.20
2009,05,24,10,54,16.20
2009,05,24,10,55,16.10
2009,05,24,10,56,16.10
2009,05,24,10,57,16.20
2009,05,24,10,58,16.10
2009,05,24,10,59,16.20
2009,05,24,11,00,16.20
2009,05,24,11,01,16.20
2009,05,24,11,02,16.30
2009,05,24,11,03,16.30
2009,05,24,11,04,16.40
2009,05,24,11,05,16.50
2009,05,24,11,06,16.50
2009,05,24,11,07,16.50
2009,05,24,11,08,16.60
2009,05,24,11,09,16.70
2009,05,24,11,10,16.70
2009,05,24,11,11,16.70
2009,05,24,11,12,16.70
2009,05,24,11,13,16.50
2009,05,24,11,14,16.50
2009,05,24,11,15,16.40
2009,05,24,11,16,16.40
2009,05,24,11,17,16.50
2009,05,24,11,18,16.60
2009,05,24,11,19,16.60
2009,05,24,11,20,16.60
2009,05,24,11,21,16.60
2009,05,24,11,22,16.70
2009,05,24,11,23,16.60
2009,05,24,11,24,16.60
2009,05,24,11,25,16.60
2009,05,24,11,26,16.60
2009,05,24,11,27,16.60
2009,05,24,11,28,16.70
2009,05,24,11,29,16.80
2009,05,24,11,30,16.80
2009,05,24,11,31,16.90
2009,05,24,11,32,17.00
2009,05,24,11,33,17.10
2009,05,24,11,34,17.20
2009,05,24,11,35,17.30
2009,05,24,11,36,17.30
2009,05,24,11,37,17.40
2009,05,24,11,38,17.30
2009,05,24,11,39,17.30
2009,05,24,11,40,17.20
2009,05,24,11,41,17.30
2009,05,24,11,42,17.30
2009,05,24,11,43,17.30
2009,05,24,11,44,17.40
2009,05,24,11,45,17.30
2009,05,24,11,46,17.30
2009,05,24,11,47,17.30
2009,05,24,11,48,17.20
2009,05,24,11,49,17.20
2009,05,24,11,50,17.20
2009,05,24,11,51,17.10
2009,05,24,11,52,16.90
2009,05,24,11,53,16.80
2009,05,24,11,54,16.70
2009,05,24,11,55,16.70
2009,05,24,11,56,16.80
2009,05,24,11,57,16.90
2009,05,24,11,58,17.10
2009,05,24,11,59,17.20
2009,05,24,12,00,17.20
2009,05,24,12,01,17.40
2009,05,24,12,02,17.50
2009,05,24,12,03,17.60
2009,05,24,12,04,17.70
2009,05,24,12,05,17.70
2009,05,24,12,06,17.80
2009,05,24,12,07,17.70
2009,05,24,12,08,17.80
2009,05,24,12,09,17.80
2009,05,24,12,10,17.70
2009,05,24,12,11,17.60
2009,05,24,12,12,17.60
2009,05,24,12,13,17.50
2009,05,24,12,14,17.40
2009,05,24,12,15,17.50
2009,05,24,12,16,17.50
2009,05,24,12,17,17.40
2009,05,24,12,18,17.50
2009,05,24,12,19,17.50
2009,05,24,12,20,17.40
2009,05,24,12,21,17.40
2009,05,24,12,22,17.30
2009,05,24,12,23,17.20
2009,05,24,12,24,17.20
2009,05,24,12,25,17.20
2009,05,24,12,26,17.30
2009,05,24,12,27,17.20
2009,05,24,12,28,17.20
2009,05,24,12,29,17.10
2009,05,24,12,30,17.00
2009,05,24,12,31,17.00
2009,05,24,12,32,17.00
2009,05,24,12,33,17.00
2009,05,24,12,34,16.90
2009,05,24,12,35,16.80
2009,05,24,12,36,16.90
2009,05,24,12,37,17.00
2009,05,24,12,38,17.00
2009,05,24,12,39,16.90
2009,05,24,12,40,16.90
2009,05,24,12,41,17.00
2009,05,24,12,42,17.10
2009,05,24,12,43,17.10
2009,05,24,12,44,17.10
2009,05,24,12,45,17.10
2009,05,24,12,46,17.20
2009,05,24,12,47,17.30
2009,05,24,12,48,17.40
2009,05,24,12,49,17.40
2009,05,24,12,50,17.40
2009,05,24,12,51,17.40
2009,05,24,12,52,17.40
2009,05,24,12,53,17.20
2009,05,24,12,54,17.10
2009,05,24,12,55,17.10
2009,05,24,12,56,17.00
2009,05,24,12,57,16.90
2009,05,24,12,58,16.80
2009,05,24,12,59,16.70
2009,05,24,13,00,16.70
2009,05,24,13,01,16.80
2009,05,24,13,02,16.80
2009,05,24,13,03,16.90
2009,05,24,13,04,16.90
2009,05,24,13,05,17.00
2009,05,24,13,06,17.10
2009,05,24,13,07,17.10
2009,05,24,13,08,17.20
2009,05,24,13,09,17.20
2009,05,24,13,10,17.30
2009,05,24,13,11,17.30
2009,05,24,13,12,17.30
2009,05,24,13,13,17.30
2009,05,24,13,14,17.30
2009,05,24,13,15,17.20
2009,05,24,13,16,17.20
2009,05,24,13,17,17.30
2009,05,24,13,18,17.40
2009,05,24,13,19,17.60
2009,05,24,13,20,17.70
2009,05,24,13,21,17.70
2009,05,24,13,22,17.70
2009,05,24,13,23,17.70
2009,05,24,13,24,17.70
2009,05,24,13,25,17.70
2009,05,24,13,26,17.60
2009,05,24,13,27,17.50
2009,05,24,13,28,17.50
2009,05,24,13,29,17.70
2009,05,24,13,30,17.70
2009,05,24,13,31,17.80
2009,05,24,13,32,17.70
2009,05,24,13,33,17.80
2009,05,24,13,34,17.80
2009,05,24,13,35,17.90
2009,05,24,13,36,18.00
2009,05,24,13,37,18.00
2009,05,24,13,38,18.00
2009,05,24,13,39,18.10
2009,05,24,13,40,18.10
2009,05,24,13,41,18.10
2009,05,24,13,42,18.10
2009,05,24,13,43,18.20
2009,05,24,13,44,18.20
2009,05,24,13,45,18.30
2009,05,24,13,46,18.30
2009,05,24,13,47,18.30
2009,05,24,13,48,18.20
2009,05,24,13,49,18.20
2009,05,24,13,50,18.20
2009,05,24,13,51,18.10
2009,05,24,13,52,18.00
2009,05,24,13,53,18.00
2009,05,24,13,54,18.00
2009,05,24,13,55,18.00
2009,05,24,13,56,18.10
2009,05,24,13,57,18.10
2009,05,24,13,58,18.10
2009,05,24,13,59,18.10
2009,05,24,14,00,18.30
2009,05,24,14,01,18.30
2009,05,24,14,02,18.40
2009,05,24,14,03,18.40
2009,05,24,14,04,18.40
2009,05,24,14,05,18.40
2009,05,24,14,06,18.50
2009,05,24,14,07,18.50
2009,05,24,14,08,18.50
2009,05,24,14,09,18.60
2009,05,24,14,10,18.60
2009,05,24,14,11,18.70
2009,05,24,14,12,18.80
2009,05,24,14,13,18.80
2009,05,24,14,14,18.80
2009,05,24,14,15,18.70
2009,05,24,14,16,18.70
2009,05,24,14,17,18.70
2009,05,24,14,18,18.70
2009,05,24,14,19,18.70
2009,05,24,14,20,18.70
2009,05,24,14,21,18.70
2009,05,24,14,22,18.80
2009,05,24,14,23,18.90
2009,05,24,14,24,19.00
2009,05,24,14,25,19.20
2009,05,24,14,26,19.30
2009,05,24,14,27,19.30
2009,05,24,14,28,19.40
2009,05,24,14,29,19.50
2009,05,24,14,30,19.60
2009,05,24,14,31,19.70
2009,05,24,14,32,19.80
2009,05,24,14,33,19.90
2009,05,24,14,34,20.00
2009,05,24,14,35,20.10
2009,05,24,14,36,20.10
2009,05,24,14,37,20.10
2009,05,24,14,38,20.20
2009,05,24,14,39,20.20
2009,05,24,14,40,20.20
2009,05,24,14,41,20.20
2009,05,24,14,42,20.10
2009,05,24,14,43,20.00
2009,05,24,14,44,20.00
2009,05,24,14,45,20.00
2009,05,24,14,46,20.10
2009,05,24,14,47,20.10
2009,05,24,14,48,20.20
2009,05,24,14,49,20.20
2009,05,24,14,50,20.10
2009,05,24,14,51,20.10
2009,05,24,14,52,20.10
2009,05,24,14,53,20.20
2009,05,24,14,54,20.40
2009,05,24,14,55,20.50
2009,05,24,14,56,20.60
2009,05,24,14,57,20.60
2009,05,24,14,58,20.70
2009,05,24,14,59,20.70
2009,05,24,15,00,20.70
2009,05,24,15,01,20.80
2009,05,24,15,02,20.90
2009,05,24,15,03,20.90
2009,05,24,15,04,20.80
2009,05,24,15,05,20.70
2009,05,24,15,06,20.80
2009,05,24,15,07,20.90
2009,05,24,15,08,21.00
2009,05,24,15,09,21.10
2009,05,24,15,10,21.20
2009,05,24,15,11,21.30
2009,05,24,15,12,21.30
2009,05,24,15,13,21.40
2009,05,24,15,14,21.50
2009,05,24,15,15,21.60
2009,05,24,15,16,21.70
2009,05,24,15,17,21.80
2009,05,24,15,18,21.80
2009,05,24,15,19,21.80
2009,05,24,15,20,21.80
2009,05,24,15,21,21.80
2009,05,24,15,22,21.70
2009,05,24,15,23,21.60
2009,05,24,15,24,21.60
2009,05,24,15,25,21.70
2009,05,24,15,26,21.70
2009,05,24,15,27,21.80
2009,05,24,15,28,21.80
2009,05,24,15,29,21.90
2009,05,24,15,30,21.90
2009,05,24,15,31,22.00
2009,05,24,15,32,22.00
2009,05,24,15,33,22.10
2009,05,24,15,34,22.20
2009,05,24,15,35,22.30
2009,05,24,15,36,22.30
2009,05,24,15,37,22.40
2009,05,24,15,38,22.40
2009,05,24,15,39,22.30
2009,05,24,15,40,22.20
2009,05,24,15,41,22.10
2009,05,24,15,42,22.10
2009,05,24,15,43,22.10
2009,05,24,15,44,22.10
2009,05,24,15,45,22.20
2009,05,24,15,46,22.20
2009,05,24,15,47,22.20
2009,05,24,15,48,22.20
2009,05,24,15,49,22.10
2009,05,24,15,50,22.10
2009,05,24,15,51,22.20
2009,05,24,15,52,22.10
2009,05,24,15,53,22.10
2009,05,24,15,54,22.10
2009,05,24,15,55,22.00
2009,05,24,15,56,21.90
2009,05,24,15,57,21.80
2009,05,24,15,58,21.70
2009,05,24,15,59,21.70
2009,05,24,16,00,21.60
2009,05,24,16,01,21.60
2009,05,24,16,02,21.60
2009,05,24,16,03,21.60
2009,05,24,16,04,21.60
2009,05,24,16,05,21.60
2009,05,24,16,06,21.60
2009,05,24,16,07,21.40
2009,05,24,16,08,21.30
2009,05,24,16,09,21.20
2009,05,24,16,10,21.10
2009,05,24,16,11,21.10
2009,05,24,16,12,21.10
2009,05,24,16,13,21.10
2009,05,24,16,14,21.20
2009,05,24,16,15,21.10
2009,05,24,16,16,21.00
2009,05,24,16,17,21.00
2009,05,24,16,18,20.90
2009,05,24,16,19,21.00
2009,05,24,16,20,21.00
2009,05,24,16,21,21.10
2009,05,24,16,22,21.10
2009,05,24,16,23,21.20
2009,05,24,16,24,21.20
2009,05,24,16,25,21.20
2009,05,24,16,26,21.20
2009,05,24,16,27,21.20
2009,05,24,16,28,21.20
2009,05,24,16,29,21.10
2009,05,24,16,30,21.10
2009,05,24,16,31,21.10
2009,05,24,16,32,21.10
2009,05,24,16,33,21.10
2009,05,24,16,34,21.20
2009,05,24,16,35,21.20
2009,05,24,16,36,21.30
2009,05,24,16,37,21.30
2009,05,24,16,38,21.30
2009,05,24,16,39,21.20
2009,05,24,16,40,21.10
2009,05,24,16,41,21.10
2009,05,24,16,42,21.00
2009,05,24,16,43,21.00
2009,05,24,16,44,20.90
2009,05,24,16,45,20.80
2009,05,24,16,46,20.80
2009,05,24,16,47,20.70
2009,05,24,16,48,20.70
2009,05,24,16,49,20.70
2009,05,24,16,50,20.70
2009,05,24,16,51,20.70
2009,05,24,16,52,20.70
2009,05,24,16,53,20.80
2009,05,24,16,54,20.80
2009,05,24,16,55,20.80
2009,05,24,16,56,20.80
2009,05,24,16,57,20.90
2009,05,24,16,58,20.90
2009,05,24,16,59,20.90
2009,05,24,17,00,21.00
2009,05,24,17,01,21.00
2009,05,24,17,02,21.10
2009,05,24,17,03,21.10
2009,05,24,17,04,21.20
2009,05,24,17,05,21.20
2009,05,24,17,06,21.20
2009,05,24,17,07,21.20
2009,05,24,17,08,21.30
2009,05,24,17,09,21.30
2009,05,24,17,10,21.30
2009,05,24,17,11,21.20
2009,05,24,17,12,21.20
2009,05,24,17,13,21.30
2009,05,24,17,14,21.30
2009,05,24,17,15,21.30
2009,05,24,17,16,21.30
2009,05,24,17,17,21.30
2009,05,24,17,18,21.40
2009,05,24,17,19,21.30
2009,05,24,17,20,21.40
2009,05,24,17,21,21.30
2009,05,24,17,22,21.30
2009,05,24,17,23,21.30
2009,05,24,17,24,21.30
2009,05,24,17,25,21.20
2009,05,24,17,26,21.20
2009,05,24,17,27,21.00
2009,05,24,17,28,21.00
2009,05,24,17,29,20.90
2009,05,24,17,30,20.90
2009,05,24,17,31,20.90
2009,05,24,17,32,20.80
2009,05,24,17,33,20.80
2009,05,24,17,34,20.80
2009,05,24,17,35,20.80
2009,05,24,17,36,20.80
2009,05,24,17,37,20.80
2009,05,24,17,38,20.80
2009,05,24,17,39,20.80
2009,05,24,17,40,20.80
2009,05,24,17,41,20.80
2009,05,24,17,42,20.80
2009,05,24,17,43,20.80
2009,05,24,17,44,20.80
2009,05,24,17,45,20.80
2009,05,24,17,46,20.80
2009,05,24,17,47,20.90
2009,05,24,17,48,20.90
2009,05,24,17,49,20.90
2009,05,24,17,50,21.00
2009,05,24,17,51,21.00
2009,05,24,17,52,21.00
2009,05,24,17,53,21.00
2009,05,24,17,54,21.00
2009,05,24,17,55,20.90
2009,05,24,17,56,20.90
2009,05,24,17,57,20.80
2009,05,24,17,58,20.70
2009,05,24,17,59,20.70
2009,05,24,18,00,20.70
2009,05,24,18,01,20.70
2009,05,24,18,02,20.70
2009,05,24,18,03,20.70
2009,05,24,18,04,20.70